Overview Statistics Trail Chart Weather Telemetry Raw packets
 

This is the latest recevied weather packets stored in our database for station/object IU5JAE-13. If no packets are shown the sender has not sent any weather packets the latest 10 day(s).

<< 47 48 49 50 51 52 53 >>
Time Temp. Humidity Pressure Rain* Wind** Luminosity Snow
1787986223 23.89° C 76% 1017 hPa 0 mm - 165 W/m² -
1787985620 23.89° C 77% 1017 hPa 0 mm - 134 W/m² -
1787985018 24.44° C 74% 1017 hPa 0 mm - 120 W/m² -
1787984415 23.89° C 75% 1017.2 hPa 0 mm - 92 W/m² -
1787983833 22.78° C 78% 1017.1 hPa 0 mm - 88 W/m² -
1787983231 22.22° C 81% 1017.1 hPa 0 mm - 54 W/m² -
1787982628 20.56° C 85% 1017 hPa 0 mm - 41 W/m² -
1787982026 20° C 86% 1017.2 hPa 0 mm - 29 W/m² -
1787981423 20° C 86% 1017.2 hPa 0 mm - 17 W/m² -
1787980821 20° C 86% 1017.3 hPa 0 mm - 12 W/m² -
1787980219 20° C 87% 1017.3 hPa 0 mm - 8 W/m² -
1787979616 19.44° C 89% 1017.4 hPa 0 mm - 6 W/m² -
1787979034 19.44° C 89% 1017.1 hPa 0 mm - 4 W/m² -
1787978431 19.44° C 89% 1017.1 hPa 0 mm - 2 W/m² -
1787977829 20° C 89% 1017 hPa 0 mm - 1 W/m² -
1787977227 19.44° C 89% 1016.9 hPa 0 mm - 0 W/m² -
1787976624 19.44° C 89% 1017 hPa 0 mm - 0 W/m² -
1787976022 20° C 87% 1016.8 hPa 0 mm - 0 W/m² -
1787975419 20° C 87% 1016.9 hPa 0 mm - 0 W/m² -
1787974817 20° C 86% 1016.9 hPa 0 mm - 0 W/m² -
1787974235 20° C 85% 1016.9 hPa 0 mm - 0 W/m² -
1787973632 20° C 85% 1016.9 hPa 0 mm - 0 W/m² -
1787973030 20.56° C 84% 1016.9 hPa 0 mm - 0 W/m² -
1787972427 20.56° C 83% 1016.8 hPa 0 mm - 0 W/m² -
1787971825 21.11° C 83% 1016.8 hPa 0 mm - 0 W/m² -

* Rain latest hour (hover to see other rain measurements)
** Current wind speed in m/s (hover to see current wind gust speed)